GW2622 Weather Reports


time (UTC)temp
F
wind
direction
speed
knots
gust
knots
rain 1hr
in
rain 24hr
in
rain mn
in
humidity
%
barometer
mb
20260506215612 56 343 0.9 11.3 0.00 0.00 0.00 35 1016.5
20260506215108 57 17 7.8 12.2 0.00 0.00 0.00 33 1016.5
20260506214605 58 301 4.3 7.8 0.00 0.00 0.00 33 1016.6
20260506214102 58 326 2.6 14.8 0.00 0.00 0.00 32 1016.5
20260506213600 57 330 8.7 13.0 0.00 0.00 0.00 31 1016.4
20260506213057 57 224 2.6 7.0 0.00 0.00 0.00 35 1016.4
20260506212554 58 341 0.9 6.1 0.00 0.00 0.00 33 1016.5
20260506212048 56 18 5.2 11.3 0.00 0.00 0.00 34 1016.4
20260506211545 58 322 9.6 13.0 0.00 0.00 0.00 34 1016.7
20260506211042 57 328 2.6 8.7 0.00 0.00 0.00 36 1016.7
20260506210538 57 330 3.5 7.8 0.00 0.00 0.00 34 1016.7
20260506210035 57 250 7.0 9.6 0.00 0.00 0.00 33 1016.6
20260506205532 57 314 11.3 13.0 0.00 0.00 0.00 34 1016.6
20260506205027 56 319 0.9 6.1 0.00 0.00 0.00 35 1016.8
20260506204526 56 319 6.1 7.0 0.00 0.00 0.00 34 1016.8
20260506204022 56 283 1.7 9.6 0.00 0.00 0.00 37 1016.8
20260506203521 55 339 1.7 8.7 0.00 0.00 0.00 38 1016.8
20260506203017 54 249 2.6 5.2 0.00 0.00 0.00 36 1017.0
20260506202514 54 315 4.3 9.6 0.00 0.00 0.00 36 1017.2
20260506202010 54 7 6.1 9.6 0.00 0.00 0.00 37 1017.1
20260506201509 54 346 3.5 6.1 0.00 0.00 0.00 38 1017.2
20260506201004 55 346 6.1 11.3 0.00 0.00 0.00 37 1017.2
20260506200501 54 284 6.1 8.7 0.00 0.00 0.00 36 1017.1
20260506195957 53 316 6.1 9.6 0.00 0.00 0.00 37 1017.0
20260506195455 55 343 3.5 7.0 0.00 0.00 0.00 38 1017.3
20260506194950 58 321 4.3 6.1 0.00 0.00 0.00 34 1017.1
20260506194448 56 296 6.1 7.8 0.00 0.00 0.00 35 1017.0
20260506193944 55 298 1.7 7.0 0.00 0.00 0.00 36 1017.5
20260506193441 55 257 7.8 9.6 0.00 0.00 0.00 36 1017.3
20260506192933 55 297 2.6 11.3 0.00 0.00 0.00 36 1017.3
20260506192430 54 295 7.0 13.0 0.00 0.00 0.00 35 1017.6
20260506191926 53 350 1.7 5.2 0.00 0.00 0.00 39 1017.5
20260506191422 54 339 2.6 6.1 0.00 0.00 0.00 40 1017.5
20260506190914 54 267 2.6 12.2 0.00 0.00 0.00 39 1017.6
20260506190410 55 15 7.0 13.9 0.00 0.00 0.00 36 1017.5
20260506185907 53 10 7.0 8.7 0.00 0.00 0.00 38 1017.3
20260506185405 53 313 1.7 11.3 0.00 0.00 0.00 38 1017.5
20260506184902 54 299 8.7 12.2 0.00 0.00 0.00 38 1017.5
20260506184358 55 325 1.7 7.0 0.00 0.00 0.00 39 1017.6
20260506183855 54 330 2.6 7.8 0.00 0.00 0.00 41 1017.7
20260506183350 54 2 3.5 6.1 0.00 0.00 0.00 39 1017.6
20260506182848 53 323 5.2 7.8 0.00 0.00 0.00 40 1017.7
20260506182345 54 22 6.1 13.9 0.00 0.00 0.00 40 1017.6
20260506181843 53 296 4.3 6.1 0.00 0.00 0.00 39 1017.7
20260506181341 53 269 5.2 13.0 0.00 0.00 0.00 40 1017.7
20260506180837 53 316 8.7 12.2 0.00 0.00 0.00 39 1017.8
20260506180333 53 349 1.7 5.2 0.00 0.00 0.00 41 1017.9
20260506175824 53 306 6.1 11.3 0.00 0.00 0.00 39 1017.8
20260506175321 53 243 3.5 7.0 0.00 0.00 0.00 38 1017.9
20260506174818 52 310 5.2 8.7 0.00 0.00 0.00 41 1017.9
20260506174315 53 330 7.8 9.6 0.00 0.00 0.00 39 1018.0
20260506173813 52 333 7.0 8.7 0.00 0.00 0.00 41 1018.0
20260506173310 52 300 4.3 7.8 0.00 0.00 0.00 40 1018.1
20260506172807 53 292 1.7 5.2 0.00 0.00 0.00 40 1018.1
20260506172306 54 322 4.3 8.7 0.00 0.00 0.00 41 1018.0
20260506171801 51 18 2.6 7.8 0.00 0.00 0.00 40 1018.0
20260506171257 52 335 7.0 11.3 0.00 0.00 0.00 41 1018.2
20260506170755 51 324 6.1 8.7 0.00 0.00 0.00 41 1018.3
20260506170251 52 16 3.5 9.6 0.00 0.00 0.00 42 1018.1
20260506165750 52 277 6.1 7.8 0.00 0.00 0.00 39 1018.2
20260506165247 52 306 5.2 12.2 0.00 0.00 0.00 41 1018.2
20260506164744 52 299 1.7 14.8 0.00 0.00 0.00 41 1018.3
20260506164241 52 296 3.5 8.7 0.00 0.00 0.00 44 1018.1
20260506163738 53 310 7.8 12.2 0.00 0.00 0.00 41 1018.0
20260506163232 53 325 4.3 11.3 0.00 0.00 0.00 41 1018.2
20260506162728 51 32 4.3 11.3 0.00 0.00 0.00 42 1018.1
20260506162227 51 25 0.9 5.2 0.00 0.00 0.00 42 1018.2
20260506161724 53 350 6.1 9.6 0.00 0.00 0.00 42 1018.2
20260506161220 53 281 7.8 13.9 0.00 0.00 0.00 38 1018.1
20260506160718 50 23 3.5 7.0 0.00 0.00 0.00 43 1018.1
20260506160209 50 300 4.3 11.3 0.00 0.00 0.00 44 1018.1
20260506155707 51 290 4.3 6.1 0.00 0.00 0.00 45 1018.0
20260506155204 51 284 2.6 12.2 0.00 0.00 0.00 46 1018.2
20260506153306 51 312 1.7 5.2 0.00 0.00 0.00 48 1018.1
20260506152803 50 310 2.6 4.3 0.00 0.00 0.00 48 1018.0
20260506152300 50 318 3.5 7.0 0.00 0.00 0.00 49 1018.3
20260506151759 49 335 1.7 5.2 0.00 0.00 0.00 48 1018.2
20260506151255 48 347 2.6 7.0 0.00 0.00 0.00 49 1018.1
20260506150752 49 334 7.0 8.7 0.00 0.00 0.00 49 1018.2
20260506150249 49 359 4.3 7.0 0.00 0.00 0.00 51 1018.1
20260506145746 48 351 3.5 5.2 0.00 0.00 0.00 51 1018.1
20260506145242 48 301 2.6 4.3 0.00 0.00 0.00 54 1018.3
20260506144740 48 261 3.5 6.1 0.00 0.00 0.00 53 1018.0
20260506144237 48 316 1.7 2.6 0.00 0.00 0.00 55 1018.1
20260506143734 48 347 2.6 2.6 0.00 0.00 0.00 57 1018.1
20260506143231 46 334 0.0 1.7 0.00 0.00 0.00 57 1018.0
20260506142730 46 8 2.6 5.2 0.00 0.00 0.00 59 1018.1
20260506142227 47 325 1.7 6.1 0.00 0.00 0.00 58 1018.1
20260506141725 47 353 1.7 2.6 0.00 0.00 0.00 59 1017.9
20260506141224 46 338 3.5 5.2 0.00 0.00 0.00 57 1018.0
20260506140721 46 6 4.3 7.0 0.00 0.00 0.00 57 1017.8
20260506140217 46 349 2.6 4.3 0.00 0.00 0.00 58 1017.8
20260506135714 46 332 0.9 4.3 0.00 0.00 0.00 62 1017.8
20260506135211 45 347 1.7 2.6 0.00 0.00 0.00 61 1017.5
20260506134708 45 335 2.6 2.6 0.00 0.00 0.00 64 1017.6
20260506134203 44 327 1.7 1.7 0.00 0.00 0.00 65 1017.3
20260506133701 44 348 1.7 5.2 0.00 0.00 0.00 65 1017.3
20260506133157 44 313 1.7 4.3 0.00 0.00 0.00 64 1017.5
20260506132655 43 332 0.9 1.7 0.00 0.00 0.00 67 1017.2
20260506132151 44 316 1.7 1.7 0.00 0.00 0.00 68 1017.1
20260506131649 43 317 0.0 0.9 0.00 0.00 0.00 66 1017.2
20260506131145 43 346 2.6 2.6 0.00 0.00 0.00 68 1017.3
20260506130642 43 343 1.7 2.6 0.00 0.00 0.00 68 1017.1
20260506130140 42 331 0.0 0.9 0.00 0.00 0.00 70 1017.0
20260506125638 42 327 1.7 1.7 0.00 0.00 0.00 69 1017.1
20260506125135 42 317 2.6 2.6 0.00 0.00 0.00 68 1017.0
20260506124633 42 336 1.7 2.6 0.00 0.00 0.00 71 1017.0
20260506124131 42 304 0.9 1.7 0.00 0.00 0.00 71 1017.0
20260506123628 41 301 0.0 0.9 0.00 0.00 0.00 72 1016.9
20260506123127 41 300 0.9 1.7 0.00 0.00 0.00 73 1016.9
20260506122623 41 299 0.0 0.9 0.00 0.00 0.00 75 1016.8
20260506122121 40 300 0.0 0.0 0.00 0.00 0.00 76 1016.5
20260506121618 40 300 0.9 0.9 0.00 0.00 0.00 76 1016.4
20260506121114 39 300 0.0 0.9 0.00 0.00 0.00 77 1016.5
20260506120612 39 300 0.0 0.0 0.00 0.00 0.00 77 1016.5
20260506120109 39 300 0.0 0.9 0.00 0.00 0.00 76 1016.5
20260506115608 39 300 0.9 1.7 0.00 0.00 0.00 76 1016.4
20260506115106 39 300 0.9 0.9 0.00 0.00 0.00 76 1016.4
20260506114602 39 300 0.9 0.9 0.00 0.00 0.00 75 1016.5
20260506114101 39 303 0.9 0.9 0.00 0.00 0.00 76 1016.1
20260506113558 39 303 1.7 1.7 0.00 0.00 0.00 75 1016.2
20260506113055 39 302 0.9 2.6 0.00 0.00 0.00 76 1016.2
20260506112552 39 302 0.0 1.7 0.00 0.00 0.00 76 1016.0
20260506112049 39 299 0.9 0.9 0.00 0.00 0.00 77 1015.9
20260506111547 39 298 0.9 1.7 0.00 0.00 0.00 77 1015.9
20260506111044 39 297 0.0 0.9 0.00 0.00 0.00 75 1015.8
20260506110542 39 297 0.9 1.7 0.00 0.00 0.00 74 1015.8
20260506110039 39 297 0.9 0.9 0.00 0.00 0.00 75 1015.5
20260506105535 39 298 0.0 0.9 0.00 0.00 0.00 76 1015.8
20260506105032 39 297 0.9 0.9 0.00 0.00 0.00 75 1015.7
20260506104530 39 297 0.9 1.7 0.00 0.00 0.00 74 1015.5
20260506104028 39 299 0.9 1.7 0.00 0.00 0.00 74 1015.4
20260506103525 39 299 0.0 1.7 0.00 0.00 0.00 74 1015.4
20260506103021 39 299 0.0 0.9 0.00 0.00 0.00 74 1015.3
20260506102520 39 299 0.0 0.0 0.00 0.00 0.00 76 1015.4
20260506102017 39 299 0.0 0.9 0.00 0.00 0.00 77 1015.0
20260506101513 39 299 0.0 0.9 0.00 0.00 0.00 74 1015.1
20260506101011 39 296 0.0 0.9 0.00 0.00 0.00 74 1015.1
20260506100509 39 296 0.0 0.9 0.00 0.00 0.00 74 1015.2
20260506100007 39 296 0.0 0.9 0.00 0.00 0.00 74 1015.2
20260506095505 39 312 0.9 0.9 0.00 0.00 0.00 75 1015.0
20260506095001 39 312 0.0 0.9 0.00 0.00 0.00 75 1015.1
20260506094459 39 295 0.0 2.6 0.00 0.00 0.00 74 1015.2
20260506093956 39 298 0.9 1.7 0.00 0.00 0.00 74 1015.1
20260506093455 39 296 0.9 2.6 0.00 0.00 0.00 74 1015.1
20260506092952 39 298 2.6 2.6 0.00 0.00 0.00 74 1015.1
20260506092450 39 300 0.9 2.6 0.00 0.00 0.00 74 1015.0
20260506091946 39 306 0.9 2.6 0.00 0.00 0.00 74 1015.0
20260506091444 40 303 0.9 2.6 0.00 0.00 0.00 73 1015.0
20260506090941 40 301 0.9 1.7 0.00 0.00 0.00 72 1014.8
20260506090439 40 301 0.9 1.7 0.00 0.00 0.00 72 1014.5
20260506085935 40 301 0.9 2.6 0.00 0.00 0.00 71 1014.7
20260506085432 40 297 1.7 2.6 0.00 0.00 0.00 72 1014.6
20260506084928 40 306 1.7 2.6 0.00 0.00 0.00 71 1014.7
20260506084426 40 296 1.7 2.6 0.00 0.00 0.00 70 1014.6
20260506083921 40 306 0.9 1.7 0.00 0.00 0.00 68 1014.7
20260506083419 41 305 1.7 1.7 0.00 0.00 0.00 65 1014.4
20260506082916 41 299 0.9 0.9 0.00 0.00 0.00 63 1014.2
20260506082414 41 300 0.0 0.0 0.00 0.00 0.00 64 1014.2
20260506081909 41 299 0.0 0.9 0.00 0.00 0.00 64 1014.2
20260506081408 40 299 0.0 0.9 0.00 0.00 0.00 65 1014.2
20260506080904 40 300 0.0 0.9 0.00 0.00 0.00 65 1014.5
20260506080402 40 300 0.0 0.0 0.00 0.00 0.00 65 1014.4
20260506073345 41 300 0.9 0.9 0.00 0.00 0.00 64 1014.4
20260506072842 40 301 0.0 0.0 0.00 0.00 0.00 65 1014.2
20260506072340 40 301 0.0 0.0 0.00 0.00 0.00 66 1014.4
20260506071837 40 301 0.0 0.0 0.00 0.00 0.00 66 1014.2
20260506071335 40 301 0.0 0.0 0.00 0.00 0.00 66 1014.3
20260506070832 41 301 0.0 0.0 0.00 0.00 0.00 65 1014.4
20260506070329 41 301 0.0 0.0 0.00 0.00 0.00 65 1014.2
20260506062306 43 308 0.9 0.9 0.00 0.00 0.00 62 1014.6
20260506061802 44 302 0.9 2.6 0.00 0.00 0.00 59 1014.6
20260506061259 44 323 1.7 1.7 0.00 0.00 0.00 57 1014.5
20260506060757 44 335 0.0 0.9 0.00 0.00 0.00 58 1014.6
20260506060255 44 335 0.9 0.9 0.00 0.00 0.00 58 1014.4
20260506051226 46 336 0.9 1.7 0.00 0.00 0.00 50 1013.5
20260506050724 46 336 0.9 1.7 0.00 0.00 0.00 49 1013.5
20260506050221 46 342 1.7 2.6 0.00 0.00 0.00 49 1013.3
20260506044707 47 335 0.0 1.7 0.00 0.00 0.00 49 1013.1
20260506044203 47 336 1.7 1.7 0.00 0.00 0.00 49 1013.2
20260506043701 48 354 1.7 2.6 0.00 0.00 0.00 47 1013.4
20260506043158 48 343 2.6 2.6 0.00 0.00 0.00 46 1013.3
20260506042657 48 328 0.0 1.7 0.00 0.00 0.00 48 1013.3
20260506042155 48 321 0.9 1.7 0.00 0.00 0.00 47 1013.3
20260506041653 49 346 0.9 4.3 0.00 0.00 0.00 46 1013.1
20260506041150 49 345 3.5 6.1 0.00 0.00 0.00 45 1013.1
20260506040648 49 337 2.6 6.1 0.00 0.00 0.00 45 1013.2
20260506040144 49 4 3.5 5.2 0.00 0.00 0.00 44 1012.7
20260506035641 50 15 4.3 7.0 0.00 0.00 0.00 44 1012.9
20260506035137 50 335 7.8 11.3 0.00 0.00 0.00 43 1013.0
20260506034635 50 17 2.6 5.2 0.00 0.00 0.00 44 1013.0
20260506034132 50 318 2.6 6.1 0.00 0.00 0.00 43 1013.1
20260506033629 50 23 3.5 5.2 0.00 0.00 0.00 45 1012.8
20260506033126 50 19 3.5 7.8 0.00 0.00 0.00 44 1012.9
20260506032623 50 345 3.5 6.1 0.00 0.00 0.00 44 1012.7
20260506032120 50 357 2.6 5.2 0.00 0.00 0.00 45 1012.7
20260506031617 51 347 2.6 7.8 0.00 0.00 0.00 45 1012.7
20260506031114 50 359 4.3 6.1 0.00 0.00 0.00 44 1012.6
20260506030613 50 273 1.7 6.1 0.00 0.00 0.00 44 1012.6
20260506030109 51 307 3.5 5.2 0.00 0.00 0.00 43 1012.7
20260506025606 51 300 1.7 6.1 0.00 0.00 0.00 43 1012.4
20260506025102 51 293 2.6 4.3 0.00 0.00 0.00 43 1012.4
20260506024600 51 269 3.5 6.1 0.00 0.00 0.00 42 1012.3
20260506024056 52 302 1.7 4.3 0.00 0.00 0.00 41 1012.2
20260506023552 52 310 0.9 5.2 0.00 0.00 0.00 42 1012.1
20260506023050 52 334 1.7 1.7 0.00 0.00 0.00 41 1012.1
20260506022547 52 306 3.5 5.2 0.00 0.00 0.00 40 1012.0
20260506022044 52 299 0.0 2.6 0.00 0.00 0.00 40 1011.9
20260506021541 53 296 2.6 6.1 0.00 0.00 0.00 39 1012.0
20260506021039 53 307 3.5 5.2 0.00 0.00 0.00 39 1011.9
20260506020536 53 308 3.5 5.2 0.00 0.00 0.00 39 1011.9
20260506020033 53 312 0.9 7.0 0.00 0.00 0.00 39 1011.8
20260506015531 53 286 2.6 5.2 0.00 0.00 0.00 39 1011.9
20260506015027 53 314 4.3 5.2 0.00 0.00 0.00 39 1011.7
20260506014525 53 313 2.6 5.2 0.00 0.00 0.00 39 1011.8
20260506014021 53 305 5.2 7.0 0.00 0.00 0.00 39 1011.7
20260506013519 53 325 1.7 6.1 0.00 0.00 0.00 39 1011.7
20260506013016 54 313 4.3 5.2 0.00 0.00 0.00 39 1011.6
20260506012512 54 295 1.7 7.0 0.00 0.00 0.00 39 1011.6
20260506012009 54 319 4.3 13.0 0.00 0.00 0.00 38 1011.7
20260506011506 54 303 2.6 6.1 0.00 0.00 0.00 39 1011.6
20260506011002 54 331 2.6 6.1 0.00 0.00 0.00 38 1011.6
20260506010502 54 301 5.2 8.7 0.00 0.00 0.00 38 1011.5
20260506005957 54 277 6.1 8.7 0.00 0.00 0.00 37 1011.4
20260506005455 55 258 4.3 6.1 0.00 0.00 0.00 38 1011.3
20260506004950 55 31 5.2 7.0 0.00 0.00 0.00 37 1011.2
20260506004448 55 266 3.5 9.6 0.00 0.00 0.00 39 1011.2
20260506003944 55 313 6.1 8.7 0.00 0.00 0.00 39 1010.9
20260506003440 55 300 0.0 1.7 0.00 0.00 0.00 39 1010.9
20260506002931 55 279 5.2 7.0 0.00 0.00 0.00 39 1010.8
20260506002428 55 278 4.3 6.1 0.00 0.00 0.00 37 1010.8
20260506001923 55 315 4.3 7.0 0.00 0.00 0.00 37 1010.9
20260506001421 56 304 3.5 5.2 0.00 0.00 0.00 38 1010.8
20260506000918 56 282 2.6 4.3 0.00 0.00 0.00 38 1010.7
20260506000416 56 335 5.2 7.8 0.00 0.00 0.00 38 1010.7
20260505235912 56 305 6.1 12.2 0.00 0.00 0.00 37 1010.8
20260505235410 56 314 2.6 6.1 0.00 0.00 0.00 37 1010.9
20260505234907 56 338 5.2 8.7 0.00 0.00 0.00 36 1010.7
20260505234404 56 308 4.3 7.0 0.00 0.00 0.00 35 1010.6
20260505233901 56 253 4.3 8.7 0.00 0.00 0.00 35 1010.6
20260505233359 56 305 5.2 7.0 0.00 0.00 0.00 35 1010.7
20260505232856 57 321 2.6 7.8 0.00 0.00 0.00 36 1010.6
20260505232354 57 358 4.3 7.8 0.00 0.00 0.00 36 1010.5
20260505231850 57 316 7.0 9.6 0.00 0.00 0.00 36 1010.4
20260505231348 57 356 2.6 7.8 0.00 0.00 0.00 36 1010.5
20260505230846 57 311 0.9 7.8 0.00 0.00 0.00 35 1010.5
20260505230343 57 282 7.0 13.9 0.00 0.00 0.00 34 1010.4
20260505225839 57 302 5.2 11.3 0.00 0.00 0.00 35 1010.3
20260505225336 57 341 2.6 11.3 0.00 0.00 0.00 35 1010.2
20260505224830 57 326 7.0 9.6 0.00 0.00 0.00 35 1010.4
20260505224329 57 16 4.3 13.0 0.00 0.00 0.00 35 1010.2
20260505223826 58 10 3.5 13.0 0.00 0.00 0.00 36 1010.4
20260505223323 58 336 3.5 12.2 0.00 0.00 0.00 35 1010.3
20260505222818 58 20 4.3 9.6 0.00 0.00 0.00 34 1010.3
20260505222315 59 338 7.0 11.3 0.00 0.00 0.00 34 1010.2
20260505221812 59 6 4.3 7.8 0.00 0.00 0.00 36 1010.2
20260505221308 59 329 7.8 11.3 0.00 0.00 0.00 34 1009.9
20260505220806 59 283 6.1 13.0 0.00 0.00 0.00 36 1010.0
20260505220303 59 292 3.5 7.0 0.00 0.00 0.00 41 1009.8